CW7977 Corfu GR current weather conditions

sailwx.info

Wind from 328 at 6 knots gusting 10

Air temperature 25.0° C
Dewpoint 17.7° C

Last reported at 2014-Sep-16 14:47 UTC.
Time now 2014-Sep-16 15:24 UTC

Location: N 39°37' E 019°54'.
View on Google Maps.

See reports from other nearby stations

  
Tides and Currents Weather Stations Pressure Air Temp Water Temp Dewpoint Dewpoint Depression Visibility Wind Speed Wind Dir Waves Ship Positions
date/time (UTC)wind fromknots sea level pressurealtimeterstation pressurevisibilityair tempwater tempwave heightnotes
2014-Sep-16 14:47 328 6 gusting 10 25.0
2014-Sep-16 14:37 340 5 gusting 13 25.0
2014-Sep-16 14:27 288 8 gusting 11 25.6
2014-Sep-16 14:17 331 6 gusting 11 25.6
2014-Sep-16 14:07 327 7 gusting 12 25.6
2014-Sep-16 13:57 348 6 gusting 11 25.6
2014-Sep-16 13:47 340 5 gusting 13 25.6
2014-Sep-16 13:37 310 4 gusting 8 25.6
2014-Sep-16 13:27 331 6 gusting 11 25.6
2014-Sep-16 13:17 347 6 gusting 10 25.6
2014-Sep-16 13:07 329 6 gusting 12 25.6
2014-Sep-16 12:57 329 7 gusting 11 26.1
2014-Sep-16 12:47 329 8 gusting 13 26.1
2014-Sep-16 12:37 335 6 gusting 11 26.1
2014-Sep-16 12:27 26.1
2014-Sep-16 12:17 333 5 gusting 11 26.1
2014-Sep-16 12:07 330 6 gusting 12 25.6
2014-Sep-16 11:57 336 6 gusting 12 25.6
2014-Sep-16 11:47 323 5 gusting 10 25.6
2014-Sep-16 11:37 331 5 gusting 11 25.6
2014-Sep-16 11:27 334 6 gusting 11 26.1
2014-Sep-16 11:17 332 6 gusting 12 26.1
2014-Sep-16 11:07 345 6 gusting 11 26.7
2014-Sep-16 10:57 330 3 gusting 7 26.7
2014-Sep-16 10:47 017 2 gusting 6 26.7
2014-Sep-16 10:37 001 1 gusting 6 26.1
2014-Sep-16 10:27 281 25.6
2014-Sep-16 10:17 066 1 gusting 6 25.6
2014-Sep-16 10:07 162 1 gusting 6 25.6
2014-Sep-16 09:57 120 1 gusting 5 25.6
2014-Sep-16 09:47 050 0 gusting 6 25.6
2014-Sep-16 09:37 022 2 gusting 6 25.6
2014-Sep-16 09:27 025 2 gusting 5 25.0
2014-Sep-16 09:17 316 0 gusting 4 25.0
2014-Sep-16 09:07 033 1 gusting 5 24.4
2014-Sep-16 08:57 079 0 gusting 5 24.4
2014-Sep-16 08:47 022 0 gusting 5 24.4
2014-Sep-16 08:37 321 0 gusting 4 23.9
2014-Sep-16 08:27 055 2 gusting 6 23.9
2014-Sep-16 08:17 019 2 gusting 6 23.3
2014-Sep-16 08:07 029 0 gusting 5 23.3
2014-Sep-16 07:57 334 1 gusting 6 22.8
2014-Sep-16 07:47 007 1 gusting 8 22.8
2014-Sep-16 07:37 339 1 gusting 8 22.8
2014-Sep-16 07:27 343 1 gusting 7 22.2
2014-Sep-16 07:17 325 2 gusting 6 22.2
2014-Sep-16 07:07 306 2 gusting 6 21.7
2014-Sep-16 06:57 306 1 gusting 6 21.7
2014-Sep-16 06:47 271 0 gusting 6 21.1
2014-Sep-16 06:37 313 1 gusting 6 21.1
2014-Sep-16 06:27 280 0 gusting 5 20.6
2014-Sep-16 06:17 071 20.6
2014-Sep-16 06:07 151 20.6
2014-Sep-16 05:57 225 0 gusting 0 20.0
2014-Sep-16 05:47 180 20.0
2014-Sep-16 05:37 267 0 gusting 2 19.4
2014-Sep-16 05:27 248 19.4
2014-Sep-16 05:17 289 0 gusting 6 19.4
2014-Sep-16 05:07 312 4 gusting 6 18.9
2014-Sep-16 04:57 316 1 gusting 4 18.9
2014-Sep-16 04:47 292 18.9
2014-Sep-16 04:37 306 18.9
2014-Sep-16 04:27 180 0 gusting 0 19.4
2014-Sep-16 04:17 238 19.4
2014-Sep-16 04:07 255 19.4
2014-Sep-16 03:57 238 0 gusting 2 19.4
2014-Sep-16 03:47 278 0 gusting 6 19.4
2014-Sep-16 03:37 303 1 gusting 7 19.4
2014-Sep-16 03:27 292 2 gusting 6 19.4
2014-Sep-16 03:17 300 2 gusting 7 19.4
2014-Sep-16 03:07 301 3 gusting 10 19.4
2014-Sep-16 02:57 302 4 gusting 10 19.4
2014-Sep-16 02:47 303 5 gusting 13 19.4
2014-Sep-16 02:37 333 6 gusting 13 19.4
2014-Sep-16 02:27 309 3 gusting 13 19.4
2014-Sep-16 02:17 326 2 gusting 10 19.4
2014-Sep-16 02:07 304 5 gusting 10 18.9
2014-Sep-16 01:57 303 3 gusting 6 18.9
2014-Sep-16 01:47 284 4 gusting 6 18.9
2014-Sep-16 01:37 312 0 gusting 2 18.9
2014-Sep-16 01:27 273 0 gusting 2 18.9
2014-Sep-16 01:17 284 0 gusting 2 18.9
2014-Sep-16 01:07 272 18.9
2014-Sep-16 00:57 229 18.9
2014-Sep-16 00:47 18.9
2014-Sep-16 00:37 225 18.9
2014-Sep-16 00:27 225 18.9
2014-Sep-16 00:17 184 18.9
2014-Sep-16 00:07 202 18.9
2014-Sep-15 23:57 260 19.4
2014-Sep-15 23:47 202 19.4
2014-Sep-15 23:37 240 0 gusting 1 19.4
2014-Sep-15 23:27 202 19.4
2014-Sep-15 23:17 158 19.4
2014-Sep-15 23:07 190 19.4
2014-Sep-15 22:57 202 20.0
2014-Sep-15 22:47 210 20.0
2014-Sep-15 22:37 248 20.0
2014-Sep-15 22:27 239 1 gusting 12 20.6
2014-Sep-15 22:17 241 2 gusting 6 20.6
2014-Sep-15 22:07 285 2 gusting 8 20.6
2014-Sep-15 21:57 314 1 gusting 6 20.6
2014-Sep-15 21:47 333 2 gusting 6 20.6
2014-Sep-15 21:37 293 1 gusting 11 20.6
2014-Sep-15 21:27 328 2 gusting 7 20.6
2014-Sep-15 21:17 332 6 gusting 13 20.6
2014-Sep-15 21:07 348 2 gusting 8 20.6
2014-Sep-15 20:57 336 4 gusting 7 20.6
2014-Sep-15 20:47 316 5 gusting 10 21.1
2014-Sep-15 20:27 304 1 gusting 6 21.1
2014-Sep-15 20:17 315 6 gusting 8 21.1
2014-Sep-15 20:07 301 3 gusting 6 21.1
2014-Sep-15 19:57 288 1 gusting 4 21.1
2014-Sep-15 19:47 304 0 gusting 5 21.1
2014-Sep-15 19:37 178 0 gusting 5 21.1
2014-Sep-15 19:27 008 2 gusting 6 21.1
2014-Sep-15 19:17 317 3 gusting 10 21.1
2014-Sep-15 19:07 313 3 gusting 7 21.1
2014-Sep-15 18:57 320 4 gusting 12 21.1
2014-Sep-15 18:47 317 2 gusting 7 21.1
2014-Sep-15 18:37 299 2 gusting 12 21.1
2014-Sep-15 18:27 283 2 gusting 6 21.1
2014-Sep-15 18:17 310 4 gusting 6 21.1
2014-Sep-15 18:07 300 2 gusting 5 21.1
2014-Sep-15 17:57 318 1 gusting 5 21.7
2014-Sep-15 17:47 286 5 gusting 6 21.7
2014-Sep-15 17:37 304 2 gusting 5 21.7
2014-Sep-15 17:27 320 2 gusting 8 21.7
2014-Sep-15 17:17 306 1 gusting 5 21.7
2014-Sep-15 17:07 332 3 gusting 6 22.2
2014-Sep-15 16:57 304 4 gusting 6 22.2
2014-Sep-15 16:47 313 4 gusting 6 22.8
2014-Sep-15 16:37 286 3 gusting 6 23.3
2014-Sep-15 16:27 303 2 gusting 7 23.3
2014-Sep-15 16:17 306 4 gusting 12 23.9
2014-Sep-15 16:07 289 5 gusting 10 24.4
2014-Sep-15 15:57 304 2 gusting 11 24.4
2014-Sep-15 15:47 296 5 gusting 10 25.0
2014-Sep-15 15:37 286 5 gusting 13 25.0
2014-Sep-15 15:27 277 5 gusting 10 25.6
2014-Sep-15 15:17 302 4 gusting 13 26.1
2014-Sep-15 14:57 276 2 gusting 11 26.1
2014-Sep-15 14:47 308 5 gusting 13 25.6
2014-Sep-15 14:37 292 5 gusting 13 25.6
2014-Sep-15 14:27 326 4 gusting 13 25.6
2014-Sep-15 14:17 319 7 gusting 13 25.6
2014-Sep-15 14:07 349 7 gusting 14 25.6
2014-Sep-15 13:57 328 7 gusting 11 25.6
2014-Sep-15 13:47 336 8 gusting 14 25.6
2014-Sep-15 13:37 338 8 gusting 13 25.6
2014-Sep-15 13:27 328 6 gusting 13 25.6
2014-Sep-15 13:17 335 8 gusting 14 25.6
2014-Sep-15 13:07 335 10 gusting 14 25.6
2014-Sep-15 12:57 345 11 gusting 17 25.6
2014-Sep-15 12:47 326 9 gusting 14 26.1
2014-Sep-15 12:37 341 8 gusting 13 26.1
2014-Sep-15 12:27 332 6 gusting 15 26.1
2014-Sep-15 12:17 328 7 gusting 14 26.1
2014-Sep-15 12:07 330 9 gusting 13 25.6
2014-Sep-15 11:57 338 8 gusting 13 25.6
2014-Sep-15 11:47 341 7 gusting 15 25.6
2014-Sep-15 11:37 327 6 gusting 13 25.6
2014-Sep-15 11:27 331 8 gusting 15 25.6
2014-Sep-15 11:17 326 6 gusting 12 25.6
2014-Sep-15 11:07 321 8 gusting 12 25.6
2014-Sep-15 10:57 319 7 gusting 13 25.6
2014-Sep-15 10:47 326 7 gusting 12 25.6
2014-Sep-15 10:37 324 6 gusting 11 25.6
2014-Sep-15 10:27 340 7 gusting 12 25.6
2014-Sep-15 10:17 327 6 gusting 13 25.0
2014-Sep-15 10:07 340 7 gusting 13 25.0
2014-Sep-15 09:57 317 7 gusting 11 25.0
2014-Sep-15 09:47 330 6 gusting 13 25.0
2014-Sep-15 09:37 340 5 gusting 11 25.0
2014-Sep-15 09:27 341 3 gusting 8 25.0
2014-Sep-15 09:17 330 6 gusting 10 25.0
2014-Sep-15 09:07 329 4 gusting 11 25.0
2014-Sep-15 08:57 341 3 gusting 10 25.0
2014-Sep-15 08:47 339 1 gusting 6 25.0
2014-Sep-15 08:37 325 1 gusting 6 24.4
2014-Sep-15 08:27 306 24.4
2014-Sep-15 08:17 289 1 gusting 6 23.9
2014-Sep-15 08:07 271 23.9
2014-Sep-15 07:57 202 23.3
2014-Sep-15 07:47 252 0 gusting 1 23.3
2014-Sep-15 07:37 079 22.8
2014-Sep-15 07:27 272 22.8
2014-Sep-15 07:17 291 0 gusting 2 22.2
2014-Sep-15 07:07 064 21.7
2014-Sep-15 06:57 158 0 gusting 2 21.1
2014-Sep-15 06:47 192 21.1
2014-Sep-15 06:37 168 0 gusting 0 20.6
2014-Sep-15 06:27 217 0 gusting 1 20.0
2014-Sep-15 06:17 202 20.0
2014-Sep-15 06:07 225 19.4
2014-Sep-15 05:57 235 0 gusting 1 19.4
2014-Sep-15 05:47 243 1 gusting 2 18.9
2014-Sep-15 05:37 200 18.9
2014-Sep-15 05:27 235 18.9
2014-Sep-15 05:17 230 1 gusting 2 18.3
2014-Sep-15 05:07 244 0 gusting 2 18.3
2014-Sep-15 04:57 240 1 gusting 4 18.3
2014-Sep-15 04:47 235 1 gusting 2 18.3
2014-Sep-15 04:37 232 0 gusting 4 18.3
2014-Sep-15 04:27 227 18.3
2014-Sep-15 04:17 225 0 gusting 2 18.3
2014-Sep-15 03:57 248 0 gusting 1 18.3
2014-Sep-15 03:47 232 0 gusting 0 18.9
2014-Sep-15 03:37 222 0 gusting 1 18.9
2014-Sep-15 03:27 230 0 gusting 1 18.9
2014-Sep-15 03:17 248 0 gusting 1 18.9
2014-Sep-15 03:07 238 18.9
2014-Sep-15 02:57 225 18.9
2014-Sep-15 02:47 248 18.9
2014-Sep-15 02:37 248 18.9
2014-Sep-15 02:27 248 0 gusting 0 18.9
2014-Sep-15 02:17 248 18.9
2014-Sep-15 02:07 225 18.9
2014-Sep-15 01:57 292 18.9
2014-Sep-15 01:47 248 18.9
2014-Sep-15 01:27 292 19.4
2014-Sep-15 01:17 248 18.9
2014-Sep-15 01:07 248 19.4
2014-Sep-15 00:57 244 19.4
2014-Sep-15 00:47 248 19.4
2014-Sep-15 00:37 248 19.4
2014-Sep-15 00:27 225 1 gusting 2 19.4
2014-Sep-15 00:17 246 19.4
2014-Sep-15 00:07 222 0 gusting 2 19.4
2014-Sep-14 23:57 225 19.4
2014-Sep-14 23:47 248 0 gusting 4 19.4
2014-Sep-14 23:37 225 19.4
2014-Sep-14 23:27 248 19.4
2014-Sep-14 23:17 202 19.4
2014-Sep-14 23:07 248 20.0
2014-Sep-14 22:57 225 20.0
2014-Sep-14 22:47 225 20.0
2014-Sep-14 22:37 225 20.0
2014-Sep-14 22:27 248 0 gusting 0 20.0
2014-Sep-14 22:17 225 20.0
2014-Sep-14 22:07 248 20.0
2014-Sep-14 21:57 217 20.0
2014-Sep-14 21:47 191 0 gusting 1 20.0
2014-Sep-14 21:37 225 20.6
2014-Sep-14 21:27 225 20.6
2014-Sep-14 21:17 270 20.6
2014-Sep-14 21:07 255 0 gusting 2 20.6
2014-Sep-14 20:57 217 0 gusting 0 20.6
2014-Sep-14 20:47 180 20.6
2014-Sep-14 20:37 248 1 gusting 2 21.1
2014-Sep-14 20:27 226 21.1
2014-Sep-14 20:17 225 0 gusting 1 21.1
2014-Sep-14 20:07 230 21.1
2014-Sep-14 19:57 225 21.1
2014-Sep-14 19:47 225 0 gusting 1 21.1
2014-Sep-14 19:37 225 21.1
2014-Sep-14 19:27 202 21.1
2014-Sep-14 19:17 202 21.1
2014-Sep-14 19:07 288 21.1
2014-Sep-14 18:57 282 21.1
2014-Sep-14 18:47 295 21.1
2014-Sep-14 18:37 292 0 gusting 2 21.7
2014-Sep-14 18:27 315 0 gusting 2 21.7
2014-Sep-14 18:17 294 1 gusting 4 21.7
2014-Sep-14 18:07 297 0 gusting 4 21.7
2014-Sep-14 17:57 313 2 gusting 4 22.2
2014-Sep-14 17:47 285 0 gusting 2 22.2
2014-Sep-14 17:37 248 22.2
2014-Sep-14 17:27 255 22.2
2014-Sep-14 17:17 289 22.2
2014-Sep-14 17:07 270 0 gusting 1 22.8
2014-Sep-14 16:57 299 0 gusting 5 22.8
2014-Sep-14 16:47 301 1 gusting 4 23.3
2014-Sep-14 16:37 292 0 gusting 6 23.3
2014-Sep-14 16:27 315 1 gusting 6 23.3
2014-Sep-14 16:17 292 1 gusting 6 23.9
2014-Sep-14 16:07 292 0 gusting 6 23.9
2014-Sep-14 15:57 323 1 gusting 6 24.4
2014-Sep-14 15:47 333 2 gusting 11 24.4
2014-Sep-14 15:37 304 4 gusting 5 25.0
2014-Sep-14 15:27 297 25.6
2014-Sep-14 15:17 041 1 gusting 6 26.1
2014-Sep-14 15:07 057 2 gusting 8 26.7